This is the latest recevied weather packets stored in our database for station/object KI7MOQ. If no packets are shown the sender has not sent any weather packets the latest 10 day(s).
| Time | Temp. | Humidity | Pressure | Rain* | Wind** | Luminosity | Snow |
|---|---|---|---|---|---|---|---|
| 1778173392 | 12.78° C | 71% | 1023.4 hPa | 0 mm | - | 41 W/m² | - |
| 1778173088 | 12.78° C | 72% | 1023.5 hPa | 0 mm | - | 93 W/m² | - |
| 1778172784 | 12.78° C | 72% | 1023.3 hPa | 0 mm | - | 124 W/m² | - |
| 1778172480 | 12.78° C | 73% | 1023.4 hPa | 0 mm | - | 217 W/m² | - |
| 1778172178 | 12.22° C | 74% | 1023.5 hPa | 0 mm | - | 123 W/m² | - |
| 1778171874 | 11.67° C | 74% | 1023.5 hPa | 0 mm | - | 111 W/m² | - |
| 1778171572 | 11.67° C | 74% | 1023.5 hPa | 0 mm | - | 107 W/m² | - |
| 1778171268 | 11.67° C | 73% | 1023.4 hPa | 0 mm | - | 108 W/m² | - |
| 1778170964 | 11.67° C | 74% | 1023.5 hPa | 0 mm | - | 111 W/m² | - |
| 1778170661 | 11.67° C | 76% | 1023.5 hPa | 0 mm | - | 111 W/m² | - |
| 1778170358 | 11.11° C | 76% | 1023.3 hPa | 0 mm | - | 85 W/m² | - |
| 1778170053 | 11.67° C | 75% | 1023.3 hPa | 0 mm | - | 85 W/m² | - |
| 1778169750 | 11.11° C | 77% | 1023.4 hPa | 0 mm | - | 71 W/m² | - |
| 1778169446 | 11.11° C | 76% | 1023.4 hPa | 0 mm | - | 66 W/m² | - |
| 1778169142 | 11.11° C | 77% | 1023.3 hPa | 0 mm | - | 55 W/m² | - |
| 1778168839 | 10.56° C | 77% | 1023.4 hPa | 0 mm | - | 72 W/m² | - |
| 1778168537 | 11.11° C | 76% | 1023.6 hPa | 0 mm | - | 68 W/m² | - |
| 1778168233 | 10.56° C | 77% | 1023.6 hPa | 0 mm | - | 62 W/m² | - |
| 1778167929 | 10.56° C | 77% | 1023.5 hPa | 0 mm | - | 60 W/m² | - |
| 1778167626 | 11.11° C | 77% | 1023.4 hPa | 0 mm | - | 50 W/m² | - |
| 1778167322 | 10.56° C | 77% | 1023.6 hPa | 0 mm | - | 47 W/m² | - |
| 1778167018 | 10.56° C | 77% | 1023.5 hPa | 0 mm | - | 54 W/m² | - |
| 1778166715 | 10.56° C | 77% | 1023.6 hPa | 0 mm | - | 47 W/m² | - |
| 1778166412 | 10.56° C | 78% | 1023.5 hPa | 0 mm | - | 52 W/m² | - |
| 1778166109 | 10.56° C | 77% | 1023.5 hPa | 0 mm | - | 43 W/m² | - |
* Rain latest hour (hover to see other rain measurements)
** Current wind speed in m/s (hover to see current wind gust speed)